Montgomery, NY

9:47 PM EST on February 13, 2016 (GMT -0500)
Orange County

Weather History for KMGJ - March, 2014

Change the Weather History Date:

Thursday, March 20, 2014

  Actual Average (KPOU) Record (KPOU)
Temperature  
Mean Temperature 40 °F 38 °F  
Max Temperature 51 °F 49 °F 77 °F (2012)
Min Temperature 33 °F 27 °F -1 °F (1949)
Degree Days  
Heating Degree Days 24 27  
Month to date heating degree days 603  
Since 1 July heating degree days 5174  
Cooling Degree Days 0 0  
Month to date cooling degree days 0  
Year to date cooling degree days 0  
Moisture  
Dew Point 31 °F    
Average Humidity 78    
Maximum Humidity 100    
Minimum Humidity 39    
Precipitation  
Precipitation 0.01 in 0.12 in 1.47 in (1990)
Month to date precipitation 2.24  
Year to date precipitation 7.98  
Sea Level Pressure  
Sea Level Pressure 29.76 in    
Wind  
Wind Speed 7 mph (WSW)    
Max Wind Speed 21 mph    
Max Gust Speed 31 mph    
Visibility 6 miles    
Events Fog , Rain    
T = Trace of Precipitation, MM = Missing Value Source: NWS Daily Summary

Daily Weather History Graph

Daily Weather History Graph

Search for Another Location

Airport or City:

Trip Planner

Search our weather history database for the weather conditions in past years. The results will help you decide how hot, cold, wet, or windy it might be!

Date:

Astronomy

Mar. 20, 2014 Rise Set
Actual Time 7:00 AM EDT 7:09 PM EDT
Civil Twilight 6:32 AM EDT 7:36 PM EDT
Nautical Twilight 6:00 AM EDT 8:09 PM EDT
Astronomical Twilight 5:27 AM EDT 8:42 PM EDT
Moon 11:29 PM EDT (3/20) 9:02 AM EDT (3/20)
Length of Visible Light 13h 04m
Length of Day
12h 08m
Waning Gibbous, 84% of the Moon is Illuminated
Mar 20
Waning Gibbous
Mar 23
Last Quarter
Mar 30
New
Apr 7
First Quarter
Apr 15
Full

Hourly Weather History & Observations

Time (EDT) Temp. Windchill Dew Point Humidity Pressure Visibility Wind Dir Wind Speed Gust Speed Precip Events Conditions
12:54 AM 35.1 °F 28.6 °F 33.1 °F 92% 29.83 in 5.0 mi NNE 8.1 mph - 0.00 in Rain Light Rain
1:35 AM 35.1 °F 30.1 °F 33.1 °F 92% 29.80 in 6.0 mi North 5.8 mph - 0.00 in   Overcast
1:54 AM 35.1 °F 31.0 °F 33.1 °F 92% 29.80 in 7.0 mi North 4.6 mph - 0.00 in   Overcast
2:11 AM 35.1 °F 32.2 °F 33.1 °F 92% 29.78 in 8.0 mi North 3.5 mph - N/A   Overcast
2:54 AM 35.1 °F - 34.0 °F 96% 29.75 in 10.0 mi Calm Calm - 0.01 in   Overcast
3:54 AM 34.0 °F 31.0 °F 33.1 °F 96% 29.73 in 3.0 mi South 3.5 mph - N/A   Overcast
4:51 AM 33.8 °F 29.6 °F 33.8 °F 100% 29.73 in 3.0 mi SSW 4.6 mph - 0.00 in   Overcast
4:54 AM 35.1 °F 31.0 °F 33.1 °F 92% 29.74 in 3.0 mi SSW 4.6 mph - 0.00 in   Overcast
5:00 AM 35.1 °F 32.2 °F 33.1 °F 92% 29.72 in 2.5 mi SSW 3.5 mph - N/A   Overcast
5:15 AM 34.0 °F 29.8 °F 33.1 °F 96% 29.72 in 1.2 mi SSW 4.6 mph - N/A   Overcast
5:27 AM 35.1 °F 30.1 °F 33.1 °F 92% 29.72 in 1.0 mi SSW 5.8 mph - N/A   Mist
5:35 AM 35.1 °F 30.1 °F 33.1 °F 92% 29.72 in 0.8 mi SW 5.8 mph - N/A   Mist
5:46 AM 35.1 °F 28.6 °F 33.1 °F 92% 29.72 in 0.5 mi SW 8.1 mph - N/A Fog Fog
5:54 AM 35.1 °F 29.3 °F 34.0 °F 96% 29.73 in 0.5 mi SW 6.9 mph - N/A Fog Fog
6:18 AM 34.0 °F - 34.0 °F 100% 29.71 in 0.5 mi Calm Calm - N/A Fog Fog
6:54 AM 34.0 °F 28.8 °F 34.0 °F 100% 29.73 in 0.5 mi SW 5.8 mph - N/A Fog Fog
7:51 AM 35.6 °F 29.2 °F 33.8 °F 93% 29.73 in 1.2 mi SSW 8.1 mph - N/A   Overcast
7:54 AM 35.1 °F 28.6 °F 34.0 °F 96% 29.74 in 1.2 mi SSW 8.1 mph - N/A   Overcast
8:03 AM 35.1 °F 28.6 °F 34.0 °F 96% 29.73 in 2.0 mi SSW 8.1 mph - N/A   Overcast
8:13 AM 35.1 °F 28.6 °F 34.0 °F 96% 29.73 in 4.0 mi SSW 8.1 mph - N/A   Overcast
8:20 AM 35.1 °F 27.9 °F 34.0 °F 96% 29.73 in 5.0 mi SSW 9.2 mph - N/A   Overcast
8:54 AM 36.0 °F 29.6 °F 35.1 °F 97% 29.74 in 6.0 mi SSW 8.1 mph - N/A   Overcast
9:51 AM 39.2 °F 33.0 °F 37.4 °F 93% 29.74 in 6.0 mi South 9.2 mph - 0.00 in   Scattered Clouds
9:54 AM 39.9 °F 33.9 °F 39.0 °F 97% 29.75 in 7.0 mi South 9.2 mph - 0.00 in   Scattered Clouds
10:54 AM 44.1 °F 38.1 °F 32.0 °F 63% 29.75 in 10.0 mi WNW 11.5 mph - N/A   Mostly Cloudy
11:54 AM 46.9 °F - 28.0 °F 48% 29.73 in 10.0 mi WNW 16.1 mph 31.1 mph N/A   Partly Cloudy
12:54 PM 46.9 °F - 28.0 °F 48% 29.73 in 10.0 mi WNW 10.4 mph - N/A   Overcast
1:54 PM 48.9 °F - 25.0 °F 39% 29.71 in 10.0 mi West 11.5 mph 25.3 mph N/A   Overcast
2:54 PM 46.9 °F - 28.0 °F 48% 29.73 in 10.0 mi West 12.7 mph 27.6 mph N/A   Overcast
3:54 PM 48.0 °F - 26.1 °F 42% 29.73 in 10.0 mi West 20.7 mph 28.8 mph N/A   Partly Cloudy
4:54 PM 46.9 °F - 26.1 °F 44% 29.73 in 10.0 mi West 15.0 mph 23.0 mph N/A   Mostly Cloudy
5:54 PM 46.0 °F 41.4 °F 26.1 °F 46% 29.76 in 10.0 mi West 9.2 mph - N/A   Mostly Cloudy
6:54 PM 44.1 °F 37.1 °F 23.0 °F 43% 29.79 in 10.0 mi West 15.0 mph 31.1 mph N/A   Mostly Cloudy
7:54 PM 42.1 °F 35.7 °F 21.9 °F 45% 29.82 in 10.0 mi WNW 11.5 mph 23.0 mph N/A   Partly Cloudy
8:54 PM 41.0 °F 33.9 °F 24.1 °F 51% 29.85 in 10.0 mi West 12.7 mph 21.9 mph N/A   Overcast
9:54 PM 39.0 °F 30.3 °F 21.9 °F 50% 29.86 in 10.0 mi West 16.1 mph 24.2 mph N/A   Clear
10:54 PM 37.9 °F 30.9 °F 21.9 °F 53% 29.87 in 10.0 mi West 10.4 mph 19.6 mph N/A   Clear
11:54 PM 37.0 °F 31.0 °F 21.9 °F 54% 29.87 in 10.0 mi West 8.1 mph - N/A   Scattered Clouds